Time,TemperatureF,DewpointF,PressureIn,WindDirection,WindDirectionDegrees,WindSpeedMPH,WindSpeedGustMPH,Humidity,HourlyPrecipIn,Conditions,Clouds,dailyrainin,SoftwareType,DateUTC
2013-05-12 00:04:00,46.8,46.0,29.82,NNW,345,6.0,12.0,97,0.00,RA,FEW,0.00,WeatherDisplay:10.37,2013-05-12 04:04:00,
2013-05-12 00:09:00,46.6,45.8,29.82,NNW,336,7.0,13.0,97,0.00,RA,FEW,0.00,WeatherDisplay:10.37,2013-05-12 04:09:00,
2013-05-12 00:19:00,46.0,45.0,29.82,NNW,338,12.0,17.0,96,0.00,CLR,FEW,0.00,WeatherDisplay:10.37,2013-05-12 04:19:00,
2013-05-12 00:24:00,45.5,44.2,29.82,NNW,345,12.0,17.0,95,0.00,CLR,FEW,0.00,WeatherDisplay:10.37,2013-05-12 04:24:00,
2013-05-12 00:29:00,45.1,43.5,29.85,NNW,334,14.0,17.0,94,0.00,CLR,FEW,0.00,WeatherDisplay:10.37,2013-05-12 04:29:00,
2013-05-12 00:39:00,44.8,42.9,29.85,NNW,333,12.0,12.0,93,0.00,CLR,FEW,0.00,WeatherDisplay:10.37,2013-05-12 04:39:00,
2013-05-12 00:49:00,43.7,41.5,29.85,NNW,331,6.0,12.0,92,0.00,CLR,FEW,0.00,WeatherDisplay:10.37,2013-05-12 04:49:00,
2013-05-12 00:59:00,43.2,40.7,29.85,NNW,336,5.0,5.0,91,0.00,CLR,FEW,0.00,WeatherDisplay:10.37,2013-05-12 04:59:00,
2013-05-12 01:04:00,43.0,40.2,29.85,NW,319,3.0,3.0,90,0.00,CLR,FEW,0.00,WeatherDisplay:10.37,2013-05-12 05:04:00,
2013-05-12 01:09:00,42.8,40.1,29.85,NW,322,2.0,0.0,90,0.00,CLR,FEW,0.00,WeatherDisplay:10.37,2013-05-12 05:09:00,
2013-05-12 01:19:00,42.3,39.8,29.85,NNW,332,1.0,6.0,91,0.00,CLR,FEW,0.00,WeatherDisplay:10.37,2013-05-12 05:19:00,
2013-05-12 01:29:00,41.9,39.2,29.85,NW,315,2.0,3.0,90,0.00,CLR,FEW,0.00,WeatherDisplay:10.37,2013-05-12 05:29:00,
2013-05-12 01:39:00,41.5,38.8,29.85,NW,310,1.0,0.0,90,0.00,CLR,FEW,0.00,WeatherDisplay:10.37,2013-05-12 05:39:00,
2013-05-12 01:44:00,41.4,38.9,29.85,WNW,296,0.0,0.0,91,0.00,CLR,FEW,0.00,WeatherDisplay:10.37,2013-05-12 05:44:00,
2013-05-12 01:49:00,41.2,38.8,29.85,WNW,295,0.0,0.0,91,0.00,CLR,FEW,0.00,WeatherDisplay:10.37,2013-05-12 05:49:00,
2013-05-12 01:59:00,41.0,39.1,29.85,WNW,295,0.0,0.0,93,0.00,CLR,FEW,0.00,WeatherDisplay:10.37,2013-05-12 05:59:00,
2013-05-12 02:04:00,40.8,39.2,29.85,WNW,295,0.0,0.0,94,0.00,CLR,FEW,0.00,WeatherDisplay:10.37,2013-05-12 06:04:00,
2013-05-12 02:09:00,40.5,38.9,29.85,WNW,295,0.0,0.0,94,0.00,CLR,FEW,0.00,WeatherDisplay:10.37,2013-05-12 06:09:00,
2013-05-12 02:14:00,40.5,38.9,29.85,WNW,295,0.0,0.0,94,0.00,CLR,FEW,0.00,WeatherDisplay:10.37,2013-05-12 06:14:00,
2013-05-12 02:19:00,39.9,38.6,29.85,WNW,295,0.0,0.0,95,0.00,CLR,FEW,0.00,WeatherDisplay:10.37,2013-05-12 06:19:00,
2013-05-12 02:29:00,39.7,38.7,29.85,WNW,295,0.0,0.0,96,0.00,CLR,FEW,0.00,WeatherDisplay:10.37,2013-05-12 06:29:00,
2013-05-12 02:39:00,39.4,38.3,29.85,WNW,295,0.0,0.0,96,0.00,CLR,FEW,0.00,WeatherDisplay:10.37,2013-05-12 06:39:00,
2013-05-12 02:49:00,39.0,38.2,29.85,WNW,295,0.0,0.0,97,0.00,CLR,FEW,0.00,WeatherDisplay:10.37,2013-05-12 06:49:00,
2013-05-12 02:54:00,39.0,38.2,29.85,WNW,295,0.0,0.0,97,0.00,CLR,FEW,0.00,WeatherDisplay:10.37,2013-05-12 06:54:00,
2013-05-12 02:59:00,39.0,38.2,29.85,WNW,295,0.0,0.0,97,0.00,CLR,FEW,0.00,WeatherDisplay:10.37,2013-05-12 06:59:00,
2013-05-12 03:04:00,39.2,38.4,29.85,WNW,295,0.0,0.0,97,0.00,CLR,FEW,0.00,WeatherDisplay:10.37,2013-05-12 07:04:00,
2013-05-12 03:09:00,39.2,38.4,29.85,WNW,295,0.0,0.0,97,0.00,CLR,FEW,0.00,WeatherDisplay:10.37,2013-05-12 07:09:00,
2013-05-12 03:19:00,39.2,38.7,29.85,WNW,295,0.0,0.0,98,0.00,CLR,FEW,0.00,WeatherDisplay:10.37,2013-05-12 07:19:00,
2013-05-12 03:29:00,39.4,38.9,29.85,WNW,295,0.0,0.0,98,0.00,CLR,FEW,0.00,WeatherDisplay:10.37,2013-05-12 07:29:00,
2013-05-12 03:39:00,39.4,38.9,29.85,WNW,295,0.0,0.0,98,0.00,CLR,FEW,0.00,WeatherDisplay:10.37,2013-05-12 07:39:00,
2013-05-12 03:49:00,39.9,39.7,29.85,West,260,0.0,0.0,99,0.00,CLR,FEW,0.00,WeatherDisplay:10.37,2013-05-12 07:49:00,
2013-05-12 03:54:00,39.9,39.7,29.85,WSW,242,0.0,0.0,99,0.00,CLR,FEW,0.00,WeatherDisplay:10.37,2013-05-12 07:54:00,
2013-05-12 03:59:00,40.5,40.2,29.85,SW,235,0.0,0.0,99,0.00,CLR,FEW,0.00,WeatherDisplay:10.37,2013-05-12 07:59:00,
2013-05-12 04:04:00,40.6,40.4,29.82,SW,231,0.0,0.0,99,0.00,CLR,FEW,0.00,WeatherDisplay:10.37,2013-05-12 08:04:00,
2013-05-12 04:09:00,40.6,40.4,29.82,SW,234,0.0,2.0,99,0.00,CLR,FEW,0.00,WeatherDisplay:10.37,2013-05-12 08:09:00,
2013-05-12 04:19:00,40.8,40.6,29.82,SW,236,0.0,3.0,99,0.00,CLR,FEW,0.00,WeatherDisplay:10.37,2013-05-12 08:19:00,
2013-05-12 04:29:00,40.1,39.6,29.82,SW,217,1.0,1.0,98,0.00,CLR,FEW,0.00,WeatherDisplay:10.37,2013-05-12 08:29:00,
2013-05-12 04:34:00,39.9,39.4,29.82,SW,220,1.0,1.0,98,0.00,CLR,FEW,0.00,WeatherDisplay:10.37,2013-05-12 08:34:00,
2013-05-12 04:39:00,39.6,39.0,29.82,SW,220,1.0,1.0,98,0.00,CLR,FEW,0.00,WeatherDisplay:10.37,2013-05-12 08:39:00,
2013-05-12 04:49:00,39.7,39.0,29.82,SW,233,0.0,1.0,97,0.00,CLR,FEW,0.00,WeatherDisplay:10.37,2013-05-12 08:49:00,
2013-05-12 04:59:00,39.4,38.6,29.82,WSW,251,1.0,7.0,97,0.00,CLR,FEW,0.00,WeatherDisplay:10.37,2013-05-12 08:59:00,
2013-05-12 05:04:00,39.6,38.8,29.82,WSW,248,2.0,7.0,97,0.00,CLR,FEW,0.00,WeatherDisplay:10.37,2013-05-12 09:04:00,
2013-05-12 05:09:00,39.6,38.8,29.82,SW,228,2.0,8.0,97,0.00,CLR,FEW,0.00,WeatherDisplay:10.37,2013-05-12 09:09:00,
2013-05-12 05:19:00,39.2,38.2,29.82,WSW,245,3.0,3.0,96,0.00,RA,FEW,0.01,WeatherDisplay:10.37,2013-05-12 09:19:00,
2013-05-12 05:29:00,38.8,37.8,29.82,South,182,2.0,2.0,96,0.00,CLR,FEW,0.01,WeatherDisplay:10.37,2013-05-12 09:29:00,
2013-05-12 05:39:00,39.2,37.9,29.82,SW,236,2.0,7.0,95,0.00,CLR,FEW,0.01,WeatherDisplay:10.37,2013-05-12 09:39:00,
2013-05-12 05:49:00,38.8,37.5,29.82,SW,218,2.0,2.0,95,0.00,CLR,FEW,0.01,WeatherDisplay:10.37,2013-05-12 09:49:00,
2013-05-12 05:54:00,38.8,37.5,29.82,SW,236,3.0,5.0,95,0.00,CLR,FEW,0.01,WeatherDisplay:10.37,2013-05-12 09:54:00,
2013-05-12 05:59:00,38.7,37.4,29.82,SW,235,2.0,6.0,95,0.00,CLR,FEW,0.01,WeatherDisplay:10.37,2013-05-12 09:59:00,
2013-05-12 06:04:00,38.7,37.4,29.82,WSW,258,3.0,7.0,95,0.00,CLR,FEW,0.01,WeatherDisplay:10.37,2013-05-12 10:04:00,
2013-05-12 06:09:00,38.7,37.4,29.85,West,262,3.0,6.0,95,0.00,CLR,FEW,0.01,WeatherDisplay:10.37,2013-05-12 10:09:00,
2013-05-12 06:19:00,38.7,37.1,29.85,WSW,242,2.0,3.0,94,0.00,CLR,FEW,0.01,WeatherDisplay:10.37,2013-05-12 10:19:00,
2013-05-12 06:29:00,38.5,36.9,29.85,WSW,244,2.0,5.0,94,0.00,CLR,FEW,0.01,WeatherDisplay:10.37,2013-05-12 10:29:00,
2013-05-12 06:39:00,38.7,37.1,29.85,SW,222,2.0,5.0,94,0.00,CLR,FEW,0.01,WeatherDisplay:10.37,2013-05-12 10:39:00,
2013-05-12 06:49:00,38.8,37.3,29.85,SW,225,5.0,8.0,94,0.00,CLR,FEW,0.01,WeatherDisplay:10.37,2013-05-12 10:49:00,
2013-05-12 06:54:00,38.8,37.3,29.85,SW,232,5.0,8.0,94,0.00,CLR,FEW,0.01,WeatherDisplay:10.37,2013-05-12 10:54:00,
2013-05-12 06:59:00,39.2,37.3,29.85,WSW,244,6.0,10.0,93,0.00,CLR,FEW,0.01,WeatherDisplay:10.37,2013-05-12 10:59:00,
2013-05-12 07:04:00,39.4,37.5,29.85,WSW,252,6.0,7.0,93,0.00,CLR,FEW,0.01,WeatherDisplay:10.37,2013-05-12 11:04:00,
2013-05-12 07:09:00,39.4,37.5,29.85,West,267,6.0,6.0,93,0.00,CLR,FEW,0.01,WeatherDisplay:10.37,2013-05-12 11:09:00,
2013-05-12 07:14:00,39.7,37.9,29.85,West,263,6.0,6.0,93,0.00,CLR,FEW,0.01,WeatherDisplay:10.37,2013-05-12 11:14:00,
2013-05-12 07:19:00,39.7,37.6,29.85,WSW,237,5.0,10.0,92,0.00,CLR,FEW,0.01,WeatherDisplay:10.37,2013-05-12 11:19:00,
2013-05-12 07:29:00,40.1,37.7,29.85,SW,229,7.0,11.0,91,0.00,CLR,FEW,0.01,WeatherDisplay:10.37,2013-05-12 11:29:00,
2013-05-12 07:39:00,41.0,38.0,29.85,SW,234,6.0,6.0,89,0.00,CLR,FEW,0.01,WeatherDisplay:10.37,2013-05-12 11:39:00,
2013-05-12 07:44:00,41.4,38.4,29.85,WSW,240,3.0,6.0,89,0.00,CLR,FEW,0.01,WeatherDisplay:10.37,2013-05-12 11:44:00,
2013-05-12 07:49:00,41.9,38.9,29.85,WSW,237,2.0,8.0,89,0.00,CLR,FEW,0.01,WeatherDisplay:10.37,2013-05-12 11:49:00,
2013-05-12 07:59:00,42.1,38.5,29.85,West,269,6.0,12.0,87,0.00,CLR,FEW,0.01,WeatherDisplay:10.37,2013-05-12 11:59:00,
2013-05-12 08:04:00,42.3,38.4,29.85,West,266,7.0,9.0,86,0.00,CLR,FEW,0.01,WeatherDisplay:10.37,2013-05-12 12:04:00,
2013-05-12 08:09:00,42.3,37.8,29.85,West,261,8.0,13.0,84,0.00,CLR,FEW,0.01,WeatherDisplay:10.37,2013-05-12 12:09:00,
2013-05-12 08:19:00,43.2,38.7,29.85,West,264,10.0,15.0,84,0.00,CLR,FEW,0.01,WeatherDisplay:10.37,2013-05-12 12:19:00,
2013-05-12 08:29:00,43.2,38.0,29.85,WSW,241,10.0,13.0,82,0.00,CLR,FEW,0.01,WeatherDisplay:10.37,2013-05-12 12:29:00,
2013-05-12 08:39:00,44.4,38.6,29.85,WSW,237,10.0,10.0,80,0.00,CLR,FEW,0.01,WeatherDisplay:10.37,2013-05-12 12:39:00,
2013-05-12 08:44:00,45.5,39.0,29.85,WSW,245,10.0,11.0,78,0.00,CLR,FEW,0.01,WeatherDisplay:10.37,2013-05-12 12:44:00,
2013-05-12 08:49:00,45.3,38.2,29.85,WSW,244,9.0,11.0,76,0.00,CLR,FEW,0.01,WeatherDisplay:10.37,2013-05-12 12:49:00,
2013-05-12 08:59:00,45.7,38.2,29.85,West,272,8.0,12.0,75,0.00,CLR,FEW,0.01,WeatherDisplay:10.37,2013-05-12 12:59:00,
2013-05-12 09:04:00,45.7,38.2,29.85,West,281,8.0,12.0,75,0.00,CLR,FEW,0.01,WeatherDisplay:10.37,2013-05-12 13:04:00,
2013-05-12 09:09:00,44.8,37.3,29.85,WNW,282,8.0,13.0,75,0.00,CLR,FEW,0.01,WeatherDisplay:10.37,2013-05-12 13:09:00,
2013-05-12 09:19:00,45.9,38.0,29.85,West,279,12.0,15.0,74,0.00,CLR,FEW,0.01,WeatherDisplay:10.37,2013-05-12 13:19:00,
2013-05-12 09:29:00,46.6,37.7,29.88,West,276,13.0,15.0,71,0.00,CLR,FEW,0.01,WeatherDisplay:10.37,2013-05-12 13:29:00,
2013-05-12 09:34:00,46.4,36.8,29.88,WNW,288,9.0,9.0,69,0.00,CLR,FEW,0.01,WeatherDisplay:10.37,2013-05-12 13:34:00,
2013-05-12 09:39:00,45.9,35.9,29.88,WNW,297,9.0,18.0,68,0.00,CLR,FEW,0.01,WeatherDisplay:10.37,2013-05-12 13:39:00,
2013-05-12 09:44:00,46.8,36.8,29.88,WNW,294,10.0,18.0,68,0.00,CLR,FEW,0.01,WeatherDisplay:10.37,2013-05-12 13:44:00,
2013-05-12 09:49:00,47.3,36.9,29.88,WNW,285,12.0,15.0,67,0.00,CLR,FEW,0.01,WeatherDisplay:10.37,2013-05-12 13:49:00,
2013-05-12 09:54:00,46.6,35.4,29.88,West,278,13.0,15.0,65,0.00,CLR,FEW,0.01,WeatherDisplay:10.37,2013-05-12 13:54:00,
2013-05-12 09:59:00,46.6,35.8,29.88,West,263,14.0,14.0,66,0.00,CLR,FEW,0.01,WeatherDisplay:10.37,2013-05-12 13:59:00,
2013-05-12 10:04:00,48.0,36.4,29.88,WSW,245,12.0,14.0,64,0.00,CLR,FEW,0.01,WeatherDisplay:10.37,2013-05-12 14:04:00,
2013-05-12 10:09:00,47.8,35.4,29.88,WSW,239,12.0,12.0,62,0.00,CLR,FEW,0.01,WeatherDisplay:10.37,2013-05-12 14:09:00,
2013-05-12 10:19:00,45.9,35.5,29.88,West,259,14.0,28.0,67,0.00,CLR,FEW,0.01,WeatherDisplay:10.37,2013-05-12 14:19:00,
2013-05-12 10:29:00,46.4,36.8,29.88,West,281,15.0,15.0,69,0.00,CLR,FEW,0.01,WeatherDisplay:10.37,2013-05-12 14:29:00,
2013-05-12 10:34:00,47.8,37.4,29.88,WSW,253,14.0,14.0,67,0.00,CLR,FEW,0.01,WeatherDisplay:10.37,2013-05-12 14:34:00,
2013-05-12 10:39:00,48.6,37.7,29.88,SW,234,12.0,17.0,66,0.00,CLR,FEW,0.01,WeatherDisplay:10.37,2013-05-12 14:39:00,
2013-05-12 10:44:00,48.6,37.7,29.88,WSW,240,12.0,17.0,66,0.00,CLR,FEW,0.01,WeatherDisplay:10.37,2013-05-12 14:44:00,
2013-05-12 10:49:00,46.8,36.0,29.88,West,269,12.0,14.0,66,0.00,CLR,FEW,0.01,WeatherDisplay:10.37,2013-05-12 14:49:00,
2013-05-12 10:54:00,46.9,35.8,29.88,WNW,285,12.0,16.0,65,0.00,CLR,FEW,0.01,WeatherDisplay:10.37,2013-05-12 14:54:00,
2013-05-12 10:59:00,47.3,35.7,29.88,West,280,14.0,18.0,64,0.00,CLR,FEW,0.01,WeatherDisplay:10.37,2013-05-12 14:59:00,
2013-05-12 11:04:00,47.1,35.6,29.88,WSW,254,14.0,18.0,64,0.00,CLR,FEW,0.01,WeatherDisplay:10.37,2013-05-12 15:04:00,
2013-05-12 11:09:00,46.9,36.2,29.88,West,262,15.0,17.0,66,0.00,CLR,FEW,0.01,WeatherDisplay:10.37,2013-05-12 15:09:00,
2013-05-12 11:19:00,47.1,35.6,29.88,West,274,16.0,19.0,64,0.00,CLR,FEW,0.01,WeatherDisplay:10.37,2013-05-12 15:19:00,
2013-05-12 11:24:00,46.6,35.0,29.88,West,273,16.0,16.0,64,0.00,CLR,FEW,0.01,WeatherDisplay:10.37,2013-05-12 15:24:00,
2013-05-12 11:29:00,46.2,35.1,29.88,West,280,15.0,17.0,65,0.00,CLR,FEW,0.01,WeatherDisplay:10.37,2013-05-12 15:29:00,
2013-05-12 11:39:00,47.1,36.0,29.88,WNW,294,13.0,15.0,65,0.00,CLR,FEW,0.01,WeatherDisplay:10.37,2013-05-12 15:39:00,
2013-05-12 11:49:00,47.3,36.5,29.88,WSW,255,14.0,20.0,66,0.00,CLR,FEW,0.01,WeatherDisplay:10.37,2013-05-12 15:49:00,
2013-05-12 11:59:00,46.0,34.9,29.91,NW,307,13.0,14.0,65,0.00,CLR,FEW,0.01,WeatherDisplay:10.37,2013-05-12 15:59:00,
2013-05-12 12:04:00,45.5,34.8,29.91,NW,314,13.0,13.0,66,0.00,CLR,FEW,0.01,WeatherDisplay:10.37,2013-05-12 16:04:00,
2013-05-12 12:09:00,45.7,35.0,29.91,NW,317,12.0,12.0,66,0.00,CLR,FEW,0.01,WeatherDisplay:10.37,2013-05-12 16:09:00,
2013-05-12 12:19:00,47.3,35.7,29.91,WNW,289,12.0,16.0,64,0.00,CLR,FEW,0.01,WeatherDisplay:10.37,2013-05-12 16:19:00,
2013-05-12 12:29:00,47.7,35.7,29.91,WNW,282,14.0,14.0,63,0.00,CLR,FEW,0.01,WeatherDisplay:10.37,2013-05-12 16:29:00,
2013-05-12 12:39:00,48.0,35.6,29.91,WNW,301,13.0,13.0,62,0.00,CLR,FEW,0.01,WeatherDisplay:10.37,2013-05-12 16:39:00,
2013-05-12 12:49:00,47.8,35.8,29.91,WNW,298,10.0,13.0,63,0.00,CLR,FEW,0.01,WeatherDisplay:10.37,2013-05-12 16:49:00,
2013-05-12 12:59:00,48.0,35.2,29.91,WSW,257,12.0,13.0,61,0.00,CLR,FEW,0.01,WeatherDisplay:10.37,2013-05-12 16:59:00,
2013-05-12 13:04:00,47.8,34.6,29.91,WSW,256,12.0,12.0,60,0.00,CLR,FEW,0.01,WeatherDisplay:10.37,2013-05-12 17:04:00,
2013-05-12 13:09:00,47.8,34.6,29.91,WSW,247,12.0,12.0,60,0.00,CLR,FEW,0.01,WeatherDisplay:10.37,2013-05-12 17:09:00,
2013-05-12 13:14:00,48.0,34.8,29.91,WSW,246,12.0,13.0,60,0.00,CLR,FEW,0.01,WeatherDisplay:10.37,2013-05-12 17:14:00,
2013-05-12 13:19:00,47.5,34.3,29.91,WNW,284,12.0,13.0,60,0.00,CLR,FEW,0.01,WeatherDisplay:10.37,2013-05-12 17:19:00,
2013-05-12 13:24:00,47.3,34.5,29.91,WNW,291,12.0,12.0,61,0.00,CLR,FEW,0.01,WeatherDisplay:10.37,2013-05-12 17:24:00,
2013-05-12 13:29:00,48.6,35.7,29.91,West,269,10.0,10.0,61,0.00,CLR,FEW,0.01,WeatherDisplay:10.37,2013-05-12 17:29:00,
2013-05-12 13:39:00,49.3,36.0,29.91,WNW,291,9.0,13.0,60,0.00,CLR,FEW,0.01,WeatherDisplay:10.37,2013-05-12 17:39:00,
2013-05-12 13:49:00,50.7,36.9,29.91,NW,313,12.0,15.0,59,0.00,CLR,FEW,0.01,WeatherDisplay:10.37,2013-05-12 17:49:00,
2013-05-12 13:59:00,49.5,35.3,29.91,NNW,330,12.0,12.0,58,0.00,CLR,FEW,0.01,WeatherDisplay:10.37,2013-05-12 17:59:00,
2013-05-12 14:04:00,48.7,34.6,29.91,WNW,286,10.0,14.0,58,0.00,CLR,FEW,0.01,WeatherDisplay:10.37,2013-05-12 18:04:00,
2013-05-12 14:09:00,50.0,36.2,29.91,West,276,10.0,14.0,59,0.00,CLR,FEW,0.01,WeatherDisplay:10.37,2013-05-12 18:09:00,
2013-05-12 14:19:00,50.4,34.8,29.91,WNW,290,10.0,18.0,55,0.00,CLR,FEW,0.01,WeatherDisplay:10.37,2013-05-12 18:19:00,
2013-05-12 14:29:00,50.2,36.4,29.91,SW,222,12.0,18.0,59,0.00,CLR,FEW,0.01,WeatherDisplay:10.37,2013-05-12 18:29:00,
2013-05-12 14:34:00,49.8,35.2,29.91,SW,232,10.0,21.0,57,0.00,CLR,FEW,0.01,WeatherDisplay:10.37,2013-05-12 18:34:00,
2013-05-12 14:39:00,48.7,34.2,29.91,WSW,254,12.0,21.0,57,0.00,CLR,FEW,0.01,WeatherDisplay:10.37,2013-05-12 18:39:00,
2013-05-12 14:49:00,49.1,35.4,29.91,WSW,244,10.0,14.0,59,0.00,CLR,FEW,0.01,WeatherDisplay:10.37,2013-05-12 18:49:00,
2013-05-12 14:59:00,48.6,34.9,29.91,WSW,258,10.0,13.0,59,0.00,CLR,FEW,0.01,WeatherDisplay:10.37,2013-05-12 18:59:00,
2013-05-12 15:04:00,48.2,34.5,29.91,West,274,12.0,13.0,59,0.00,CLR,FEW,0.01,WeatherDisplay:10.37,2013-05-12 19:04:00,
2013-05-12 15:09:00,48.7,35.0,29.91,WNW,287,12.0,14.0,59,0.00,CLR,FEW,0.01,WeatherDisplay:10.37,2013-05-12 19:09:00,
2013-05-12 15:19:00,50.0,34.5,29.91,WSW,255,13.0,14.0,55,0.00,CLR,FEW,0.01,WeatherDisplay:10.37,2013-05-12 19:19:00,
2013-05-12 15:29:00,50.7,34.7,29.91,WSW,248,12.0,12.0,54,0.00,CLR,FEW,0.01,WeatherDisplay:10.37,2013-05-12 19:29:00,
2013-05-12 15:39:00,50.4,33.4,29.91,NNW,328,12.0,20.0,52,0.00,CLR,FEW,0.01,WeatherDisplay:10.37,2013-05-12 19:39:00,
2013-05-12 15:49:00,50.0,34.0,29.91,WNW,303,15.0,15.0,54,0.00,CLR,FEW,0.01,WeatherDisplay:10.37,2013-05-12 19:49:00,
2013-05-12 15:59:00,49.6,33.7,29.91,West,279,12.0,12.0,54,0.00,CLR,FEW,0.01,WeatherDisplay:10.37,2013-05-12 19:59:00,
2013-05-12 16:04:00,49.8,33.8,29.91,WNW,282,9.0,12.0,54,0.00,CLR,FEW,0.01,WeatherDisplay:10.37,2013-05-12 20:04:00,
2013-05-12 16:09:00,49.8,34.3,29.91,WNW,292,9.0,15.0,55,0.00,CLR,FEW,0.01,WeatherDisplay:10.37,2013-05-12 20:09:00,
2013-05-12 16:19:00,48.6,33.6,29.91,WNW,302,12.0,15.0,56,0.00,CLR,FEW,0.01,WeatherDisplay:10.37,2013-05-12 20:19:00,
2013-05-12 16:30:00,48.4,33.8,29.91,WNW,298,13.0,13.0,57,0.00,CLR,FEW,0.01,WeatherDisplay:10.37,2013-05-12 20:30:00,
2013-05-12 16:39:00,48.7,34.6,29.91,WNW,300,9.0,12.0,58,0.00,CLR,FEW,0.01,WeatherDisplay:10.37,2013-05-12 20:39:00,
2013-05-12 16:49:00,49.1,34.5,29.91,NW,318,9.0,10.0,57,0.00,CLR,FEW,0.01,WeatherDisplay:10.37,2013-05-12 20:49:00,
2013-05-12 16:59:00,49.5,35.3,29.91,WNW,298,8.0,12.0,58,0.00,CLR,FEW,0.01,WeatherDisplay:10.37,2013-05-12 20:59:00,
2013-05-12 17:04:00,49.5,34.4,29.91,WNW,299,8.0,12.0,56,0.00,CLR,FEW,0.01,WeatherDisplay:10.37,2013-05-12 21:04:00,
2013-05-12 17:09:00,49.5,34.4,29.91,West,269,8.0,9.0,56,0.00,CLR,FEW,0.01,WeatherDisplay:10.37,2013-05-12 21:09:00,
2013-05-12 17:19:00,49.8,35.2,29.91,WNW,297,6.0,6.0,57,0.00,CLR,FEW,0.01,WeatherDisplay:10.37,2013-05-12 21:19:00,
2013-05-12 17:29:00,49.1,33.6,29.91,West,279,5.0,10.0,55,0.00,CLR,FEW,0.01,WeatherDisplay:10.37,2013-05-12 21:29:00,
2013-05-12 17:39:00,49.5,33.5,29.91,West,270,9.0,20.0,54,0.00,CLR,FEW,0.01,WeatherDisplay:10.37,2013-05-12 21:39:00,
2013-05-12 17:49:00,50.4,31.9,29.91,WNW,290,13.0,13.0,49,0.00,CLR,FEW,0.01,WeatherDisplay:10.37,2013-05-12 21:49:00,
2013-05-12 17:59:00,50.0,32.1,29.91,NW,311,10.0,16.0,50,0.00,CLR,FEW,0.01,WeatherDisplay:10.37,2013-05-12 21:59:00,
2013-05-12 18:04:00,50.0,31.6,29.91,WNW,289,12.0,12.0,49,0.00,CLR,FEW,0.01,WeatherDisplay:10.37,2013-05-12 22:04:00,
2013-05-12 18:09:00,50.0,31.6,29.91,West,275,12.0,13.0,49,0.00,CLR,FEW,0.01,WeatherDisplay:10.37,2013-05-12 22:09:00,
2013-05-12 18:19:00,49.6,31.2,29.91,NW,313,12.0,13.0,49,0.00,CLR,FEW,0.01,WeatherDisplay:10.37,2013-05-12 22:19:00,
2013-05-12 18:29:00,49.5,31.1,29.91,West,280,9.0,9.0,49,0.00,CLR,FEW,0.01,WeatherDisplay:10.37,2013-05-12 22:29:00,
2013-05-12 18:39:00,49.3,33.3,29.91,NW,313,7.0,12.0,54,0.00,CLR,FEW,0.01,WeatherDisplay:10.37,2013-05-12 22:39:00,
2013-05-12 18:49:00,49.1,33.2,29.91,West,279,9.0,12.0,54,0.00,CLR,FEW,0.01,WeatherDisplay:10.37,2013-05-12 22:49:00,
2013-05-12 18:59:00,48.9,32.0,29.91,NW,313,10.0,15.0,52,0.00,CLR,FEW,0.01,WeatherDisplay:10.37,2013-05-12 22:59:00,
2013-05-12 19:04:00,48.7,32.8,29.94,WNW,296,9.0,15.0,54,0.00,CLR,FEW,0.01,WeatherDisplay:10.37,2013-05-12 23:04:00,
2013-05-12 19:09:00,48.6,32.7,29.91,WNW,295,9.0,10.0,54,0.00,CLR,FEW,0.01,WeatherDisplay:10.37,2013-05-12 23:09:00,
2013-05-12 19:19:00,48.4,32.5,29.94,West,269,10.0,14.0,54,0.00,CLR,FEW,0.01,WeatherDisplay:10.37,2013-05-12 23:19:00,
2013-05-12 19:29:00,48.2,32.3,29.94,West,277,12.0,12.0,54,0.00,CLR,FEW,0.01,WeatherDisplay:10.37,2013-05-12 23:29:00,
2013-05-12 19:39:00,48.0,32.6,29.94,WNW,292,9.0,10.0,55,0.00,CLR,FEW,0.01,WeatherDisplay:10.37,2013-05-12 23:39:00,
2013-05-12 19:49:00,47.8,33.3,29.94,West,268,7.0,7.0,57,0.00,CLR,FEW,0.01,WeatherDisplay:10.37,2013-05-12 23:49:00,
2013-05-12 19:54:00,47.7,33.6,29.94,WNW,286,7.0,7.0,58,0.00,CLR,FEW,0.01,WeatherDisplay:10.37,2013-05-12 23:54:00,
2013-05-12 19:59:00,47.5,33.4,29.94,WNW,303,6.0,7.0,58,0.00,CLR,FEW,0.01,WeatherDisplay:10.37,2013-05-12 23:59:00,
2013-05-12 20:04:00,47.3,32.8,29.94,NW,309,5.0,7.0,57,0.00,CLR,FEW,0.01,WeatherDisplay:10.37,2013-05-13 00:04:00,
2013-05-12 20:09:00,47.8,34.2,29.94,WNW,303,5.0,6.0,59,0.00,CLR,FEW,0.01,WeatherDisplay:10.37,2013-05-13 00:09:00,
2013-05-12 20:19:00,47.5,33.4,29.94,WNW,285,7.0,12.0,58,0.00,CLR,FEW,0.01,WeatherDisplay:10.37,2013-05-13 00:19:00,
2013-05-12 20:24:00,47.3,32.8,29.94,WNW,284,7.0,9.0,57,0.00,CLR,FEW,0.01,WeatherDisplay:10.37,2013-05-13 00:24:00,
2013-05-12 20:30:00,47.1,32.7,29.94,NW,305,8.0,9.0,57,0.00,CLR,FEW,0.01,WeatherDisplay:10.37,2013-05-13 00:30:00,
2013-05-12 20:39:00,46.9,33.3,29.94,NW,311,9.0,11.0,59,0.00,CLR,FEW,0.01,WeatherDisplay:10.37,2013-05-13 00:39:00,
2013-05-12 20:50:00,46.6,33.0,29.94,WNW,284,12.0,14.0,59,0.00,CLR,FEW,0.01,WeatherDisplay:10.37,2013-05-13 00:50:00,
2013-05-12 20:59:00,46.6,33.8,29.97,West,279,9.0,14.0,61,0.00,CLR,FEW,0.01,WeatherDisplay:10.37,2013-05-13 00:59:00,
2013-05-12 21:04:00,46.2,34.7,29.97,WNW,300,7.0,7.0,64,0.00,CLR,FEW,0.01,WeatherDisplay:10.37,2013-05-13 01:04:00,
2013-05-12 21:10:00,46.2,35.5,29.97,WNW,303,6.0,6.0,66,0.00,CLR,FEW,0.01,WeatherDisplay:10.37,2013-05-13 01:10:00,
2013-05-12 21:19:00,45.5,35.2,29.97,WNW,288,7.0,10.0,67,0.00,CLR,FEW,0.01,WeatherDisplay:10.37,2013-05-13 01:19:00,
2013-05-12 21:30:00,45.3,34.6,29.97,WNW,292,8.0,11.0,66,0.00,CLR,FEW,0.01,WeatherDisplay:10.37,2013-05-13 01:30:00,
2013-05-12 21:40:00,45.5,33.2,29.97,WNW,285,9.0,13.0,62,0.00,CLR,FEW,0.01,WeatherDisplay:10.37,2013-05-13 01:40:00,
2013-05-12 21:49:00,45.3,32.2,29.97,WNW,283,9.0,10.0,60,0.00,CLR,FEW,0.01,WeatherDisplay:10.37,2013-05-13 01:49:00,
2013-05-12 21:59:00,45.3,32.7,30.00,West,262,8.0,9.0,61,0.00,CLR,FEW,0.01,WeatherDisplay:10.37,2013-05-13 01:59:00,
2013-05-12 22:04:00,45.1,33.3,30.00,WNW,293,7.0,15.0,63,0.00,CLR,FEW,0.01,WeatherDisplay:10.37,2013-05-13 02:04:00,
2013-05-12 22:10:00,45.0,33.5,30.00,NW,323,8.0,15.0,64,0.00,CLR,FEW,0.01,WeatherDisplay:10.37,2013-05-13 02:10:00,
2013-05-12 22:19:00,44.2,34.3,30.00,NW,326,7.0,7.0,68,0.00,CLR,FEW,0.01,WeatherDisplay:10.37,2013-05-13 02:19:00,
2013-05-12 22:29:00,44.2,35.1,30.00,NW,324,6.0,9.0,70,0.00,CLR,FEW,0.01,WeatherDisplay:10.37,2013-05-13 02:29:00,
2013-05-12 22:34:00,43.9,34.7,30.00,NW,324,7.0,9.0,70,0.00,CLR,FEW,0.01,WeatherDisplay:10.37,2013-05-13 02:34:00,
2013-05-12 22:39:00,43.7,34.9,30.00,NNW,336,6.0,6.0,71,0.00,CLR,FEW,0.01,WeatherDisplay:10.37,2013-05-13 02:39:00,
2013-05-12 22:49:00,43.5,35.1,30.00,NNW,344,5.0,6.0,72,0.00,CLR,FEW,0.01,WeatherDisplay:10.37,2013-05-13 02:49:00,
2013-05-12 22:54:00,43.5,35.1,30.00,NNW,345,3.0,6.0,72,0.00,CLR,FEW,0.01,WeatherDisplay:10.37,2013-05-13 02:54:00,
2013-05-12 22:59:00,43.3,34.9,30.00,NW,325,5.0,6.0,72,0.00,CLR,FEW,0.01,WeatherDisplay:10.37,2013-05-13 02:59:00,
2013-05-12 23:04:00,43.3,35.6,30.00,NNW,333,3.0,6.0,74,0.00,CLR,FEW,0.01,WeatherDisplay:10.37,2013-05-13 03:04:00,
2013-05-12 23:09:00,43.3,35.6,30.00,NNW,345,3.0,3.0,74,0.00,CLR,FEW,0.01,WeatherDisplay:10.37,2013-05-13 03:09:00,
2013-05-12 23:19:00,43.2,34.7,30.00,WNW,293,3.0,8.0,72,0.00,CLR,FEW,0.01,WeatherDisplay:10.37,2013-05-13 03:19:00,
2013-05-12 23:24:00,43.2,34.4,30.00,West,281,3.0,6.0,71,0.00,CLR,FEW,0.01,WeatherDisplay:10.37,2013-05-13 03:24:00,
2013-05-12 23:30:00,43.0,34.2,30.00,West,280,5.0,8.0,71,0.00,CLR,FEW,0.01,WeatherDisplay:10.37,2013-05-13 03:30:00,
2013-05-12 23:40:00,43.0,33.9,30.00,West,263,6.0,7.0,70,0.00,CLR,FEW,0.01,WeatherDisplay:10.37,2013-05-13 03:40:00,
2013-05-12 23:49:00,43.0,33.9,30.00,WNW,284,5.0,5.0,70,0.00,CLR,FEW,0.01,WeatherDisplay:10.37,2013-05-13 03:49:00,
2013-05-12 23:59:00,42.6,33.5,30.00,WSW,252,2.0,3.0,70,0.00,CLR,FEW,0.00,WeatherDisplay:10.37,2013-05-13 03:59:00,